Location: Wiesbaden
(50.0830°N, 8.2500°E)
Time: 11:15:52
(UTC+01:00)

ISS - Pass Details

Date: 12 January 2019
Orbit: 404 x 407 km, 51.6° (Epoch: 16 January)

Event Time Altitude Azimuth Distance (km) Brightness Sun altitude
Exits shadow 06:36:44 11° 215° (SW) 1,388 -1.3 -16.2°
Drops below altitude 10° 06:37:26 10° 202° (SSW) 1,464 -1.1 -16.1°
Sets 06:40:38 0° 168° (SSE) 2,317 0.4 -15.6°
